Location: Borea
(45.6167°N, 23.0167°E)
Time: 02:14:36
(UTC+00:00)

OPS 8068 - Pass Details

Date: 24 February 2024
Orbit: 631 x 963 km, 98.3° (Epoch: 13 April)

Event Time Altitude Azimuth Distance (km) Brightness Sun altitude
Rises 02:17:06 0° 138° (SE) 2,914 ? -31.7°
Reaches altitude 10° 02:19:27 10° 127° (SE) 2,021 ? -31.3°
Maximum altitude 02:23:16 31° 66° (ENE) 1,155 ? -30.7°
Drops below altitude 10° 02:27:16 10° 5° (N) 2,120 ? -30.1°
Sets 02:29:46 0° 355° (N) 3,084 ? -29.6°
